Satellite-Ground Cal/Val Region Overpasses Predictions

Prediction of Satellite NPP Overpassing Cal/Val Region: PacNW

Region Location: (Latitude: 10.00, Longitude: 139.50) to (Latitude: 22.70, Longitude: 165.60).

Table of predicted overpasses for the next 14.0 days since TLE Epoch: 8/22/2014
Interval Starting Time Starting Location Ending Time Ending Location
1 08/22/2014 03:50:39 ( 10.05, 144.01) 08/22/2014 03:54:14 ( 22.67, 140.99)
2 08/22/2014 14:42:16 ( 18.39, 165.59) 08/22/2014 14:44:38 ( 10.06, 163.63)
3 08/22/2014 16:22:33 ( 22.68, 141.27) 08/22/2014 16:24:37 ( 15.40, 139.50)
4 08/23/2014 03:31:38 ( 10.02, 148.77) 08/23/2014 03:35:14 ( 22.69, 145.74)
5 08/23/2014 16:03:33 ( 22.65, 146.02) 08/23/2014 16:07:08 ( 10.03, 143.01)
6 08/24/2014 03:12:39 ( 10.05, 153.52) 08/24/2014 03:16:14 ( 22.66, 150.50)
7 08/24/2014 15:44:33 ( 22.68, 150.78) 08/24/2014 15:48:08 ( 10.06, 147.77)
8 08/25/2014 02:53:38 ( 10.02, 158.28) 08/25/2014 02:57:14 ( 22.69, 155.25)
9 08/25/2014 15:25:33 ( 22.65, 155.53) 08/25/2014 15:29:08 ( 10.03, 152.52)
10 08/26/2014 02:34:39 ( 10.05, 163.03) 08/26/2014 02:38:14 ( 22.67, 160.01)
11 08/26/2014 15:06:33 ( 22.67, 160.29) 08/26/2014 15:10:08 ( 10.05, 157.28)
12 08/27/2014 02:18:17 ( 19.36, 165.59) 08/27/2014 02:19:14 ( 22.70, 164.76)
13 08/27/2014 03:57:08 ( 10.02, 142.41) 08/27/2014 04:00:36 ( 22.23, 139.50)
14 08/27/2014 14:47:33 ( 22.64, 165.04) 08/27/2014 14:51:08 ( 10.02, 162.02)
15 08/27/2014 16:29:03 ( 22.64, 139.66) 08/27/2014 16:29:14 ( 22.00, 139.50)
16 08/28/2014 03:38:09 ( 10.05, 147.16) 08/28/2014 03:41:44 ( 22.67, 144.15)
17 08/28/2014 16:10:03 ( 22.67, 144.43) 08/28/2014 16:13:38 ( 10.05, 141.41)
18 08/29/2014 03:19:09 ( 10.02, 151.92) 08/29/2014 03:22:44 ( 22.64, 148.91)
19 08/29/2014 15:51:02 ( 22.70, 149.19) 08/29/2014 15:54:38 ( 10.02, 146.16)
20 08/30/2014 03:00:09 ( 10.06, 156.67) 08/30/2014 03:03:44 ( 22.67, 153.66)
21 08/30/2014 15:32:03 ( 22.66, 153.93) 08/30/2014 15:35:38 ( 10.04, 150.92)
22 08/31/2014 02:41:09 ( 10.03, 161.43) 08/31/2014 02:44:44 ( 22.65, 158.42)
23 08/31/2014 15:13:02 ( 22.69, 158.69) 08/31/2014 15:16:38 ( 10.01, 155.67)
24 09/01/2014 02:22:52 ( 12.59, 165.59) 09/01/2014 02:25:44 ( 22.68, 163.16)
25 09/01/2014 04:03:38 ( 10.00, 140.82) 09/01/2014 04:05:14 ( 15.64, 139.50)
26 09/01/2014 14:54:03 ( 22.65, 163.44) 09/01/2014 14:57:38 ( 10.03, 160.43)
27 09/02/2014 03:44:39 ( 10.04, 145.56) 09/02/2014 03:48:14 ( 22.66, 142.55)
28 09/02/2014 14:38:07 ( 11.82, 165.59) 09/02/2014 14:38:37 ( 10.06, 165.19)
29 09/02/2014 16:16:32 ( 22.68, 142.83) 09/02/2014 16:20:07 ( 10.06, 139.81)
30 09/03/2014 03:25:38 ( 10.01, 150.32) 09/03/2014 03:29:14 ( 22.69, 147.30)
31 09/03/2014 15:57:33 ( 22.64, 147.57) 09/03/2014 16:01:08 ( 10.02, 144.56)
32 09/04/2014 03:06:39 ( 10.05, 155.07) 09/04/2014 03:10:14 ( 22.67, 152.06)


NCC Satellite Cal/Val Overpasses Prediction Service
